RH
52 54 55 53 53 58 57 61 68 71 66 68 68 65 63 64 62 70 65 58 63 61 59 59 62 62 46 37 37 39 40 40 45 36 34 38 56 52 50 48 42 44 56
53 58 60 59 58 55 62 59 64 69 70 67 66 66 64 62 62 65 69 54 59 61 57 60 58 45 60 63 47 57 50 53 49 62 53 44 52 55 55 58 44 32 41
57 58 60 60 63 61 62 61 65 65 66 59 63 67 65 63 65 65 71 62 63 57 56 58 58 58 64 60 71 60 55 55 69 63 54 52 46 45 50 53 56 55 37
56 59 62 62 60 61 62 66 65 67 66 64 64 65 63 61 61 63 66 65 63 57 63 60 61 63 66 66 64 74 87 92 81 65 67 68 53 49 50 47 42 42 42
62 59 62 63 63 70 71 71 68 67 64 64 66 65 65 62 54 70 67 66 66 65 64 66 63 73 90 87 83 86 92 66 52 49 57 69 94 62 81 67 45 42 75
72 82 65 75 75 75 69 77 73 68 67 66 66 66 70 59 86 75 80 65 67 67 68 65 76 89 82 94 97 96 91 86 83 94 75 67 82 91 68 47 46 46 73
95 89 76 80 73 77 77 81 83 93 86 83 73 75 80 72 82 83 80 65 60 64 68 69 76 54 74 67 87 85 80 81 84 93 92 88 83 71 70 69 72 72 70
91 95 84 94 90 79 90 90 95 94 92 94 89 86 83 82 88 94 96 77 72 66 72 79 82 73 79 78 81 70 63 76 77 55 66 68 61 65 68 60 70 71 59
95 89 85 95 89 97 98 98 98 99 98 98 96 91 90 84 84 96 95 83 79 82 82 73 80 78 73 75 72 72 67 65 74 80 79 79 78 80 73 44 44 44 88
96 90 91 90 92 98 98 99 99 99 99 99 96 94 91 90 84 88 88 72 74 59 66 62 68 66 79 74 58 65 66 59 47 54 57 67 68 61 66 58 42 41 40
97 98 97 98 99 99 98 99 99 99 99 98 97 97 91 80 68 86 82 67 58 61 54 52 46 80 87 76 73 55 62 57 63 54 46 39 40 39 37 45 53 39 37
97 97 98 98 98 99 99 99 99 99 99 99 99 98 96 85 78 73 78 76 70 60 62 53 57 89 80 81 72 85 83 72 39 39 38 38 36 36 38 43 56 52 47
98 98 98 98 95 96 98 99 99 99 99 99 98 98 93 91 72 71 68 70 67 40 39 64 84 90 87 75 80 80 79 40 40 40 45 39 38 39 49 48 50 56 55
96 95 95 96 88 88 93 97 99 99 99 99 98 98 97 72 58 65 54 39 54 50 72 46 65 73 84 62 56 53 49 51 47 42 42 40 40 34 33 33 34 34 30
69 67 67 68 81 87 91 97 99 98 99 99 99 98 98 81 66 69 69 47 54 61 64 47 45 52 42 45 48 50 62 55 59 62 44 55 36 34 39 34 33 31 30
40 36 43 57 54 59 66 64 72 85 92 91 88 90 71 81 76 75 76 76 72 75 51 38 37 35 35 37 41 44 42 47 40 40 38 39 35 33 36 35 34 33 34
52 55 46 41 34 38 38 38 38 45 68 70 73 71 75 65 75 76 78 75 75 72 43 38 39 39 38 36 37 36 36 37 51 35 34 34 33 32 33 32 33 33 33
55 78 36 40 45 47 45 42 36 36 36 37 58 58 68 74 73 74 78 72 34 50 28 26 30 36 38 40 39 37 39 41 36 36 35 33 32 32 32 32 32 34 33
48 46 47 44 43 48 42 42 40 44 44 41 40 56 61 70 72 75 79 38 29 26 23 24 27 30 35 38 39 40 43 38 37 36 33 32 32 32 34 31 34 59 54
54 74 67 47 44 46 40 39 37 39 40 40 39 37 40 48 41 39 40 38 33 29 28 30 31 34 37 43 45 44 43 43 41 37 33 33 35 33 32 33 32 33 36
34 39 75 34 34 34 36 37 38 38 37 38 36 42 84 38 35 34 32 32 32 32 33 35 37 40 42 45 44 42 39 36 36 34 33 35 36 33 36 35 33 33 34
26 26 26 29 30 31 33 33 33 34 34 33 31 33 76 39 37 34 32 32 30 32 31 37 39 39 40 42 43 38 34 34 35 34 33 32 34 34 33 34 34 34 34
25 26 26 27 31 48 34 30 30 31 31 31 30 29 29 30 31 33 35 32 31 30 31 34 38 35 35 36 34 34 32 32 33 33 33 34 33 33 34 34 35 35 34
31 30 34 33 36 34 31 35 34 47 37 33 32 32 32 32 31 32 32 35 39 41 34 34 34 33 33 35 32 32 31 30 31 33 34 33 34 46 35 36 35 36 35
29 33 35 36 37 36 36 34 36 36 36 35 34 34 33 33 33 33 32 34 37 39 42 39 48 43 36 40 33 33 66 64 43 49 35 35 37 42 35 33 34 34 37
37 38 36 36 38 39 39 38 37 36 37 38 38 38 38 40 40 42 41 43 46 41 40 39 39 46 40 38 37 65 83 78 53 73 38 34 35 35 33 37 38 35 36
Wind_Speed
14 13 12 11 11 9 9 8 7 7 6 6 7 7 8 8 9 9 8 8 8 8 8 5 7 7 8 7 6 6 6 7 8 7 8 2 5 5 8 7 9 8 9
13 13 12 11 10 10 9 9 7 7 7 7 6 6 6 8 8 9 10 9 10 10 10 9 9 8 7 7 8 7 8 8 8 8 8 7 3 5 4 5 4 6 4
13 13 13 13 12 11 11 9 8 7 7 7 6 6 6 7 8 8 8 9 10 10 10 10 10 9 10 8 6 8 7 8 3 8 8 7 4 5 4 5 4 2 7
13 13 14 14 13 12 11 10 9 7 7 7 6 6 6 6 7 8 8 8 9 9 9 10 10 10 9 9 8 6 5 4 5 8 6 7 7 0 5 5 4 2 4
12 13 13 13 12 11 11 10 10 8 7 6 5 5 6 6 3 3 5 6 7 8 8 8 10 5 4 3 4 5 5 8 6 7 5 5 4 7 4 6 5 4 6
10 8 10 11 12 12 11 11 10 8 8 7 7 5 5 3 8 1 4 6 6 7 7 6 5 6 5 3 2 2 3 6 7 5 7 5 6 4 6 6 5 4 1
5 3 9 9 12 12 11 11 8 5 5 6 7 6 4 3 3 2 2 4 6 5 6 6 6 3 3 3 5 5 5 3 2 3 5 6 5 4 5 6 3 4 2
5 6 6 5 3 9 6 5 3 3 7 5 6 2 2 0 6 7 3 4 6 2 4 5 3 3 3 1 3 3 1 4 6 4 3 5 4 5 5 5 5 3 2
4 7 6 6 8 6 6 6 5 5 3 3 2 4 3 1 8 4 2 3 1 2 1 2 1 3 2 2 6 5 4 4 7 13 12 7 4 6 8 8 4 6 4
3 5 4 5 6 6 7 6 4 4 6 6 6 5 6 5 9 9 4 4 5 5 4 5 4 2 2 0 5 6 7 6 6 6 6 7 5 5 10 8 8 7 5
5 6 5 4 2 2 4 2 5 6 7 7 7 5 6 6 5 8 9 3 3 3 2 4 4 5 3 2 4 5 4 3 3 5 5 3 0 3 5 7 8 7 7
7 7 5 6 3 4 8 7 7 8 8 2 8 5 4 3 7 7 9 9 6 5 3 1 3 6 3 2 6 3 1 4 5 5 4 3 2 2 5 5 7 8 8
9 8 7 7 7 8 6 7 7 5 5 5 3 4 3 3 3 2 5 5 5 3 5 5 4 3 7 8 6 2 7 3 1 2 3 1 1 3 3 4 5 5 6
10 9 7 5 8 8 6 6 5 5 5 3 3 3 3 3 2 1 1 1 3 4 6 3 4 6 10 8 5 5 2 1 1 2 2 3 3 3 2 1 1 2 2
9 7 7 7 6 7 6 5 6 4 3 3 1 0 2 3 2 3 1 1 3 3 4 2 4 2 3 2 2 2 2 2 1 3 1 1 1 1 2 1 1 1 3
9 9 7 5 5 4 5 5 8 4 1 1 1 2 3 4 6 4 3 2 4 4 6 5 4 4 5 5 5 5 5 4 2 4 2 3 3 3 3 1 2 0 1
9 8 5 5 6 6 5 5 6 4 3 4 4 4 5 8 8 5 3 3 4 3 6 6 6 6 5 5 5 5 5 3 3 3 3 3 2 3 4 3 2 1 1
7 5 5 6 5 4 3 3 3 2 1 5 4 0 4 4 4 3 3 4 5 6 7 7 7 7 6 7 5 5 3 4 4 3 3 3 4 3 3 2 2 2 3
4 5 4 3 4 3 2 2 1 1 2 3 2 6 8 6 5 5 6 6 7 7 6 6 7 7 7 6 5 3 4 4 3 4 3 3 3 4 2 2 3 6 4
6 4 4 1 2 1 1 3 2 2 3 3 3 4 6 2 5 6 6 6 7 7 7 6 7 6 6 5 5 5 5 4 5 5 4 3 3 3 3 3 3 3 2
2 2 3 5 3 3 4 4 5 4 4 5 5 2 9 5 8 7 7 7 8 8 7 7 6 6 5 6 6 5 5 6 5 4 4 5 4 5 3 2 2 3 2
3 4 4 4 3 3 4 5 5 5 5 6 6 2 9 5 8 8 8 8 8 7 7 5 6 7 7 7 6 6 6 5 5 5 5 4 5 4 3 3 3 3 3
3 2 2 2 3 2 6 4 5 5 5 6 6 7 6 7 7 8 9 8 8 8 6 6 7 7 6 5 5 5 6 5 5 5 5 5 4 4 3 4 4 4 3
4 5 4 4 5 6 5 6 6 3 5 7 7 8 8 9 9 10 9 8 9 8 8 7 8 9 6 6 5 5 5 4 4 5 5 4 4 4 5 4 4 2 4
2 3 3 3 4 4 4 5 6 7 8 8 8 8 9 9 10 10 10 8 8 10 9 7 4 6 10 9 7 7 12 12 4 4 4 4 4 5 5 4 3 4 4
3 3 3 3 4 4 5 5 7 8 9 8 9 9 9 9 10 10 8 9 10 11 10 9 10 11 7 7 7 11 10 10 5 3 4 4 4 4 4 4 3 5 5
Wind_Direction
205 202 209 209 213 216 226 226 221 217 216 214 218 225 227 228 227 229 242 262 235 240 258 259 258 275 273 275 259 261 274 277 268 296 331 341 324 313 329 333 288 281 120
204 208 207 210 217 215 218 229 219 212 200 202 204 218 236 235 232 231 236 254 231 240 240 246 255 265 261 270 277 269 303 311 286 290 298 296 274 315 300 284 293 322 350
203 205 209 212 210 218 213 217 208 206 207 209 208 218 221 227 233 237 244 247 252 244 245 245 251 254 257 266 254 262 269 246 251 270 299 315 301 291 304 238 267 332 248
199 207 210 213 213 213 209 208 207 208 214 218 223 231 229 222 225 236 240 244 258 252 253 259 258 264 256 251 257 266 280 288 283 271 261 277 283 0 277 288 284 225 336
201 211 218 218 214 214 214 216 210 206 209 215 212 225 245 253 272 304 284 266 264 265 265 257 247 288 358 313 241 214 230 251 255 287 294 277 297 308 339 306 298 307 139
194 223 242 233 214 207 211 208 208 211 216 219 223 225 207 200 83 28 286 277 275 275 278 269 181 186 157 153 157 78 338 267 273 258 288 272 257 236 237 312 297 295 90
171 221 256 243 222 214 206 204 209 210 226 229 222 226 201 173 75 293 240 279 293 280 273 272 205 180 267 155 92 97 73 57 314 289 307 312 313 13 322 288 323 310 337
164 129 195 242 239 215 167 177 190 180 222 228 216 152 242 52 356 337 284 261 254 313 333 309 247 161 52 311 210 205 126 30 337 298 32 33 21 332 297 291 314 302 193
218 212 226 213 197 185 211 206 196 205 192 122 90 105 112 8 357 320 238 185 253 261 337 359 160 166 86 337 234 189 159 132 72 74 92 109 93 8 349 292 248 287 167
198 244 241 226 216 203 200 183 184 179 117 118 100 69 51 46 11 332 316 230 206 229 203 158 73 13 149 298 236 198 214 179 163 150 160 185 208 93 44 19 339 307 328
114 116 101 85 61 207 146 98 100 106 114 124 116 85 54 29 35 349 9 280 299 240 239 192 121 45 341 276 289 260 252 208 139 195 201 192 191 81 55 32 17 4 344
95 90 101 101 89 97 96 87 94 116 119 87 100 88 43 50 8 15 21 35 0 280 273 51 57 21 29 334 273 78 199 233 202 215 196 162 132 76 81 57 54 49 51
84 70 50 57 60 48 65 128 118 110 104 126 130 109 160 200 191 140 58 13 29 318 8 57 74 141 153 119 78 123 224 224 186 216 147 115 50 62 145 132 105 106 101
72 69 62 58 82 74 76 44 48 103 101 106 129 144 160 212 179 35 350 333 219 222 161 117 61 31 48 78 170 188 136 168 242 154 141 152 178 192 149 216 258 209 255
93 88 86 96 86 83 69 63 76 39 40 81 81 287 168 227 187 115 85 336 342 37 313 166 247 191 220 189 134 108 17 128 107 56 158 183 266 208 51 332 297 234 277
101 107 113 115 97 104 97 79 54 75 70 56 356 338 141 83 116 113 92 52 330 334 254 267 249 243 229 192 195 190 166 182 180 175 170 213 210 210 176 199 215 147 166
102 108 96 73 92 108 111 127 133 156 185 150 129 97 75 139 159 164 183 245 247 242 248 255 253 231 234 231 224 187 206 153 187 210 206 186 210 161 228 193 199 227 175
79 6 93 104 91 77 63 49 39 36 53 146 192 159 114 137 158 187 233 275 231 205 260 266 256 233 226 226 216 213 162 182 196 205 215 195 215 217 198 201 231 258 239
75 83 81 79 59 76 121 137 115 48 330 312 208 190 159 160 177 195 205 262 294 294 283 258 259 253 227 222 210 195 195 191 191 204 211 214 219 232 189 243 91 349 311
124 61 323 350 135 249 308 316 308 268 230 253 270 260 147 142 239 246 229 255 268 274 275 268 262 248 231 207 189 191 197 185 188 205 212 207 211 252 228 214 248 240 223
1 90 26 263 282 315 315 299 302 300 289 300 305 5 73 289 284 282 267 261 250 263 263 260 251 234 208 201 201 203 209 209 207 214 200 206 197 219 224 227 236 237 265
310 327 321 301 306 285 329 322 293 286 290 296 298 316 153 255 267 272 271 265 264 254 270 248 242 214 207 205 212 224 220 217 204 208 207 210 207 216 216 223 230 237 218
26 3 22 358 354 17 245 270 299 301 308 316 309 304 286 294 295 283 283 281 277 267 253 236 220 225 208 215 216 223 236 215 202 211 206 201 206 212 212 220 223 230 245
28 16 21 19 35 321 352 342 313 299 296 297 303 302 298 298 295 292 282 273 282 279 254 238 238 225 206 222 207 222 222 205 182 181 223 202 205 151 240 228 219 223 264
54 54 40 39 16 14 358 343 347 336 324 315 312 310 309 309 308 308 305 295 275 260 257 236 246 260 220 211 219 208 91 75 3 61 192 194 215 178 241 233 245 249 259
75 76 69 54 53 38 24 9 357 340 323 316 313 312 316 324 325 329 328 326 310 291 256 221 222 217 219 186 216 113 115 120 146 355 280 186 194 210 220 237 237 279 288